Beckley, WV

7:44 PM EDT on April 29, 2017 (GMT -0400)
Raleigh County Memorial

Weather History for KBKW - February, 2013

Change the Weather History Date:

Friday, February 22, 2013

  Actual Average Record
Temperature  
Mean Temperature 37 °F 36 °F  
Max Temperature 42 °F 45 °F 71 °F (1916)
Min Temperature 32 °F 27 °F -10 °F (1963)
Degree Days  
Heating Degree Days 28 29  
Month to date heating degree days 725 687  
Since 1 July heating degree days 3641 3831  
Cooling Degree Days 0 0  
Month to date cooling degree days 0 0  
Year to date cooling degree days 0 0  
Moisture  
Dew Point 29 °F    
Average Humidity 66    
Maximum Humidity 96    
Minimum Humidity 35    
Precipitation  
Precipitation 0.12 in 0.10 in 1.36 in (2003)
Month to date precipitation 1.06 2.15  
Year to date precipitation 5.83 4.96  
Snow  
Snow 0.00 in - - ()
Month to date snowfall 9.4  
Since 1 September snowfall 51.8  
Snow Depth 0.00 in    
Sea Level Pressure  
Sea Level Pressure 30.08 in    
Wind  
Wind Speed 14 mph (SE)    
Max Wind Speed 25 mph    
Max Gust Speed 36 mph    
Visibility 9 miles    
Events Rain    
T = Trace of Precipitation, MM = Missing Value Source: NWS Daily Summary

Daily Weather History Graph

Daily Weather History Graph

Search for Another Location

Airport or City:

Trip Planner

Search our weather history database for the weather conditions in past years. The results will help you decide how hot, cold, wet, or windy it might be!

Date:

Astronomy

Feb. 22, 2013 Rise Set
Actual Time 7:05 AM EST 6:11 PM EST
Civil Twilight 6:38 AM EST 6:37 PM EST
Nautical Twilight 6:08 AM EST 7:08 PM EST
Astronomical Twilight 5:37 AM EST 7:38 PM EST
Moon 3:23 PM EST (2/22) 4:47 AM EST (2/22)
Length of Visible Light 11h 59m
Length of Day
11h 06m
Waxing Gibbous, 90% of the Moon is Illuminated
Feb 22
Waxing Gibbous
Feb 25
Full
Mar 4
Last Quarter
Mar 11
New
Mar 19
First Quarter

Hourly Weather History & Observations

Time (EST) Temp. Windchill Dew Point Humidity Pressure Visibility Wind Dir Wind Speed Gust Speed Precip Events Conditions
12:51 AM 37.9 °F 30.9 °F 12.9 °F 36% 30.21 in 10.0 mi SSE 10.4 mph 21.9 mph N/A   Overcast
1:51 AM 35.1 °F 25.9 °F 19.9 °F 54% 30.19 in 10.0 mi SE 13.8 mph 28.8 mph 0.00 in Rain Light Rain
2:36 AM 33.8 °F 22.8 °F 26.6 °F 75% 30.07 in 8.0 mi SE 18.4 mph 35.7 mph 0.01 in Rain Light Freezing Rain
2:51 AM 32.0 °F 20.1 °F 27.0 °F 82% 30.14 in 10.0 mi SE 19.6 mph 29.9 mph 0.02 in Rain Light Freezing Rain
3:12 AM 32.0 °F 20.5 °F 26.6 °F 80% 30.05 in 10.0 mi SE 18.4 mph 35.7 mph 0.00 in   Overcast
3:51 AM 32.0 °F 20.1 °F 28.0 °F 85% 30.12 in 10.0 mi SE 19.6 mph 28.8 mph 0.00 in   Overcast
4:19 AM 32.0 °F 19.8 °F 28.4 °F 87% 30.04 in 10.0 mi SE 20.7 mph 32.2 mph 0.00 in Rain Light Freezing Rain
4:51 AM 32.0 °F 20.8 °F 28.9 °F 88% 30.12 in 5.0 mi SE 17.3 mph 29.9 mph 0.02 in Rain Light Freezing Rain
5:05 AM 33.8 °F 23.5 °F 28.4 °F 81% 30.04 in 4.0 mi SE 16.1 mph 31.1 mph 0.02 in Rain Light Freezing Rain
5:17 AM 33.8 °F 22.2 °F 28.4 °F 81% 30.03 in 2.5 mi SE 20.7 mph 32.2 mph 0.04 in Rain Light Freezing Rain
5:24 AM 33.8 °F 22.8 °F 28.4 °F 81% 30.02 in 4.0 mi SE 18.4 mph 26.5 mph 0.05 in Rain Light Freezing Rain
5:33 AM 33.8 °F 22.5 °F 28.4 °F 81% 30.03 in 10.0 mi SE 19.6 mph 26.5 mph 0.06 in Rain Light Rain
5:51 AM 33.1 °F 22.2 °F 28.9 °F 85% 30.10 in 10.0 mi SE 17.3 mph 28.8 mph 0.06 in Rain Light Rain
6:06 AM 32.0 °F 20.5 °F 28.4 °F 87% 30.02 in 10.0 mi SE 18.4 mph 28.8 mph 0.00 in   Overcast
6:22 AM 32.0 °F 20.5 °F 28.4 °F 87% 30.03 in 10.0 mi SSE 18.4 mph 31.1 mph 0.00 in   Overcast
6:32 AM 32.0 °F 21.2 °F 28.4 °F 87% 30.02 in 7.0 mi SE 16.1 mph 27.6 mph 0.00 in Rain Light Freezing Rain
6:42 AM 32.0 °F 21.6 °F 28.4 °F 87% 30.03 in 7.0 mi SE 15.0 mph 25.3 mph 0.01 in Rain Light Freezing Rain
6:51 AM 32.0 °F 21.2 °F 28.9 °F 88% 30.11 in 10.0 mi SE 16.1 mph 26.5 mph 0.02 in Rain Light Freezing Rain
7:06 AM 32.0 °F 21.2 °F 28.4 °F 87% 30.03 in 10.0 mi SE 16.1 mph 25.3 mph 0.00 in   Overcast
7:14 AM 32.0 °F 22.1 °F 28.4 °F 87% 30.03 in 10.0 mi SE 13.8 mph 24.2 mph 0.00 in   Overcast
7:43 AM 32.0 °F 20.8 °F 28.4 °F 87% 30.04 in 10.0 mi SE 17.3 mph 25.3 mph 0.00 in   Overcast
7:51 AM 32.0 °F 21.6 °F 28.0 °F 85% 30.13 in 10.0 mi SE 15.0 mph 25.3 mph 0.00 in   Overcast
8:04 AM 32.0 °F 23.0 °F 28.4 °F 87% 30.05 in 10.0 mi SE 11.5 mph 23.0 mph N/A   Overcast
8:51 AM 32.0 °F 20.8 °F 28.9 °F 88% 30.14 in 10.0 mi SE 17.3 mph 29.9 mph N/A   Overcast
9:51 AM 32.0 °F 22.5 °F 30.0 °F 92% 30.12 in 10.0 mi SE 12.7 mph 21.9 mph N/A   Overcast
10:51 AM 34.0 °F 25.0 °F 30.9 °F 89% 30.12 in 9.0 mi SE 12.7 mph 20.7 mph N/A   Overcast
11:51 AM 34.0 °F 26.0 °F 32.0 °F 92% 30.12 in 10.0 mi SE 10.4 mph 17.3 mph N/A   Overcast
12:51 PM 37.0 °F 28.1 °F 34.0 °F 89% 30.09 in 10.0 mi SSE 15.0 mph 20.7 mph N/A   Overcast
1:51 PM 37.9 °F 28.5 °F 33.1 °F 83% 30.07 in 10.0 mi SSE 17.3 mph 24.2 mph N/A   Mostly Cloudy
2:03 PM 39.2 °F 30.5 °F 33.8 °F 81% 30.01 in 10.0 mi SSE 16.1 mph 24.2 mph N/A   Scattered Clouds
2:51 PM 41.0 °F 33.1 °F 35.1 °F 79% 30.06 in 10.0 mi SSE 15.0 mph 20.7 mph N/A   Scattered Clouds
3:51 PM 41.0 °F 33.1 °F 34.0 °F 76% 30.07 in 10.0 mi SSE 15.0 mph 21.9 mph N/A   Scattered Clouds
4:51 PM 42.1 °F 35.7 °F 34.0 °F 73% 30.05 in 10.0 mi SE 11.5 mph - N/A   Clear
5:51 PM 39.9 °F 32.9 °F 34.0 °F 79% 30.04 in 10.0 mi SE 11.5 mph 19.6 mph N/A   Clear
6:51 PM 37.9 °F 30.9 °F 33.1 °F 83% 30.06 in 10.0 mi SE 10.4 mph 18.4 mph N/A   Scattered Clouds
7:51 PM 37.9 °F 30.9 °F 33.1 °F 83% 30.07 in 10.0 mi SE 10.4 mph - N/A   Scattered Clouds
8:51 PM 37.0 °F 30.4 °F 33.1 °F 86% 30.08 in 10.0 mi SE 9.2 mph - N/A   Partly Cloudy
9:51 PM 37.0 °F 30.4 °F 33.1 °F 86% 30.09 in 10.0 mi ESE 9.2 mph 17.3 mph N/A   Partly Cloudy
10:51 PM 36.0 °F 28.5 °F 33.1 °F 89% 30.08 in 10.0 mi SE 10.4 mph - N/A   Clear
11:06 PM 35.6 °F 27.5 °F 33.8 °F 93% 29.99 in 10.0 mi SE 11.5 mph - N/A   Partly Cloudy
11:51 PM 36.0 °F 28.5 °F 34.0 °F 93% 30.05 in 10.0 mi SE 10.4 mph - N/A   Scattered Clouds